Regional Weather Roundup
Issued by NWS

Home | Current Version | Previous Version | Graphics & Text | Print | Product List | Glossary Off
Versions: 1 2 3 4 5 6 7 8 9 10 11 12 13 14 15 16 17 18 19 20 21 22 23 24 25 26 27 28 29 30 31 32 33 34 35 36 37 38 39 40 41 42 43 44 45 46 47 48 49 50

000
ASUS43 KDTX 241201
RWRMI
MICHIGAN HOURLY REGIONAL WEATHER ROUNDUP
NATIONAL WEATHER SERVICE DETROIT/PONTIAC MI
700 AM EST TUE JAN 24 2017

NOTE: "FAIR" INDICATES FEW OR NO CLOUDS BELOW 12,000 FEET WITH NO
SIGNIFICANT WEATHER AND/OR OBSTRUCTION TO VISIBILITY.

MIZ047>049-052>055-059>063-066>070-074>076-081>083-241300-
SOUTHEAST LOWER MICHIGAN

CITY           SKY/WX    TMP DP  RH WIND       PRES   REMARKS
ADRIAN         LGT RAIN  38  38 100 NW7       29.75R WCI  33
6HR MIN TEMP:  38; 6HR MAX TEMP:  40; 6HR PCP:  0.03;

ALMA           MIX PCPN  37  37  99 NW7       29.76S WCI  31
ANN ARBOR      CLOUDY    38  37  97 W7        29.73R WCI  33
BAD AXE        CLOUDY    33  33 100 CALM      29.74R FOG
6HR MIN TEMP:  33; 6HR MAX TEMP:  35;

CARO           LGT RAIN  36  35  97 CALM      29.74R VSB 3/4
DETROIT CITY   LGT RAIN  38  37  97 CALM      29.74R FOG
6HR MIN TEMP:  38; 6HR MAX TEMP:  39; 6HR PCP: TRACE;

DETROIT        LGT RAIN  39  39 100 S3        29.74R VSB 3/4
6HR MIN TEMP:  39; 6HR MAX TEMP:  41; 6HR PCP:  0.04;

FLINT          LGT RAIN  35  35 100 NW7       29.75R FOG     WCI  29
6HR MIN TEMP:  35; 6HR MAX TEMP:  38; 6HR PCP:  0.06;

GROSSE ILE     LGT RAIN  37  37  97 CALM      29.73R VSB 1
6HR MIN TEMP:  37; 6HR MAX TEMP:  39;

HILLSDALE      DRIZZLE   36  36 100 NW10      29.73R WCI  28
HOWELL         CLOUDY    36  35  98 NW6       29.73S FOG     WCI  31

CITY           SKY/WX    TMP DP  RH WIND       PRES   REMARKS
JACKSON        LGT RAIN  37  36  96 NW8       29.74S WCI  31
6HR MIN TEMP:  37; 6HR MAX TEMP:  38; 6HR PCP: TRACE;

LAMBERTVILLE   CLOUDY    40  38  95 CALM      29.74R FOG
6HR MIN TEMP:  39; 6HR MAX TEMP:  42;

LANSING        CLOUDY    37  35  92 NW8       29.76S FOG     WCI  31
6HR MIN TEMP:  37; 6HR MAX TEMP:  37; 6HR PCP:  0.09;

LAPEER         DRZL/FOG  35  35 100 CALM      29.74R VSB 1
6HR MIN TEMP:  35; 6HR MAX TEMP:  37;

MASON          DRIZZLE   37  37 100 W7        29.74F WCI  31
MONROE         DRIZZLE   38  38 100 SW3       29.73S
6HR MIN TEMP:  38; 6HR MAX TEMP:  41; 6HR PCP:  0.03;

MT. CLEMENS    LGT RAIN  37  37 100 CALM      29.72R FOG
6HR MIN TEMP:  36; 6HR MAX TEMP:  37; 6HR PCP:  0.01;

PONTIAC        LGT RAIN  37  35  92 NW5       29.71R VSB 1   WCI  33
6HR MIN TEMP:  37; 6HR MAX TEMP:  38; 6HR PCP:  0.02;

PORT HOPE        N/A     34  33  96 W3        29.73R
6HR MIN TEMP:  34; 6HR MAX TEMP:  36;

PORT HURON     LGT RAIN  36  34  93 CALM      29.74R
TRI CITIES     LGT RAIN  36  36 100 W5        29.76R FOG     WCI  32
6HR MIN TEMP:  35; 6HR MAX TEMP:  36; 6HR PCP:  0.09;

MIDLAND        DRIZZLE   37  36  97 W3        29.75R
6HR MIN TEMP:  36; 6HR MAX TEMP:  37; 6HR PCP:  0.01;

TROY           LGT RAIN  38  37  96 CALM      29.75R
SAGINAW HB     LGT RAIN  36  34  93 W5        29.75R WCI  32
$$
MIZ043>046-050>051-056>058-064>065-071>073-077>080-241300-
SOUTHWEST LOWER MICHIGAN

CITY           SKY/WX    TMP DP  RH WIND       PRES   REMARKS
BATTLE CREEK   CLOUDY    38  38 100 NW7       29.78R FOG     WCI  33
6HR MIN TEMP:  38; 6HR MAX TEMP:  40; 6HR PCP:  0.02;

BENTON HARBOR  CLOUDY    39  35  86 NW6       29.82R WCI  35
6HR MIN TEMP:  39; 6HR MAX TEMP:  39;

BIG RAPIDS     CLOUDY    36  35  97 NW3       29.77R
6HR MIN TEMP:  36; 6HR MAX TEMP:  37;

COLDWATER      CLOUDY    39  39 100 NW8       29.77R FOG     WCI  33
6HR MIN TEMP:  39; 6HR MAX TEMP:  40;

FREMONT        CLOUDY    37  35  93 NW9       29.78S WCI  30
6HR MIN TEMP:  36; 6HR MAX TEMP:  38;

HOLLAND        CLOUDY    38  36  92 NW7       29.80S WCI  33
6HR MIN TEMP:  38; 6HR MAX TEMP:  39;

GRAND RAPIDS   CLOUDY    38  35  89 NW9       29.78R WCI  31
6HR MIN TEMP:  38; 6HR MAX TEMP:  40; 6HR PCP: TRACE;

IONIA          CLOUDY    37  37 100 W9        29.77R WCI  30
6HR MIN TEMP:  37; 6HR MAX TEMP:  37; 6HR PCP:  0.01;

KALAMAZOO      CLOUDY    38  35  89 NW13      29.79R WCI  30
6HR MIN TEMP:  38; 6HR MAX TEMP:  40;

LUDINGTON      CLOUDY    36  35  98 NW5       29.81R FOG     WCI  32
6HR MIN TEMP:  35; 6HR MAX TEMP:  37;

MARSHALL       CLOUDY    39  38  99 NW5       29.76R FOG
6HR MIN TEMP:  38; 6HR MAX TEMP:  39; 6HR PCP:  0.01;

MOUNT PLEASANT CLOUDY    37  36  99 W6        29.76S FOG     WCI  32
6HR MIN TEMP:  36; 6HR MAX TEMP:  37; 6HR PCP:  0.01;

MUSKEGON       CLOUDY    38  35  89 NW6       29.81R WCI  33
6HR MIN TEMP:  37; 6HR MAX TEMP:  39;

SOUTH HAVEN    CLOUDY    38  37  95 NW6       29.81R WCI  33
$$
MIZ016>042-241300-
NORTHERN LOWER MICHIGAN

CITY           SKY/WX    TMP DP  RH WIND       PRES   REMARKS
ALPENA         CLOUDY    35  33  92 CALM      29.76R
6HR MIN TEMP:  35; 6HR MAX TEMP:  36; 6HR PCP:  0.11;

BEAVER ISLAND  CLOUDY    33  33 100 CALM      29.78S FOG
6HR MIN TEMP:  32; 6HR MAX TEMP:  34;

BELLAIRE       FOG       33  33 100 CALM      29.77S VSB 1/4
6HR MIN TEMP:  33; 6HR MAX TEMP:  34;

CADILLAC       CLOUDY    34  33  96 W5        29.74S WCI  30
CHARLEVOIX     CLOUDY    35  35 100 W5        29.80R FOG     WCI  31
FRANKFORT      CLOUDY    37  36  97 NW5       29.80R WCI  33
GAYLORD        CLOUDY    35  32  88 CALM      29.73S FOG
6HR MIN TEMP:  35; 6HR MAX TEMP:  36; 6HR PCP:  0.02;

GRAYLING       FOG       35  34  97 CALM      29.75S VSB 1/2
HARBOR SPRINGS FOG       34  34 100 CALM      29.76S VSB 1/2
HOUGHTON LAKE  FOG       34  33  96 CALM      29.74S VSB 1
6HR MIN TEMP:  34; 6HR MAX TEMP:  35; 6HR PCP:  0.05;

MANISTEE       CLOUDY    37  36  96 NW3       29.80R
OSCODA         MIX PCPN  35  35  97 CALM      29.74R
6HR MIN TEMP:  35; 6HR MAX TEMP:  37;

PELLSTON       LGT RAIN  34  33  96 W3        29.76S FOG
6HR MIN TEMP:  33; 6HR MAX TEMP:  34; 6HR PCP:  0.03;

ROGERS CITY    MIX PCPN  34  33  96 CALM      29.77S
TRAVERSE CITY  CLOUDY    36  36 100 NW6       29.77S FOG     WCI  31
6HR MIN TEMP:  36; 6HR MAX TEMP:  37;

$$
MIZ007>008-015-241300-
EASTERN UPPER MICHIGAN

CITY           SKY/WX    TMP DP  RH WIND       PRES   REMARKS
KINROSS        LGT SNOW  32  32 100 NE5       29.78R FOG     WCI  27
6HR MIN TEMP:  32; 6HR MAX TEMP:  33; 6HR PCP:  0.09;

MACKINAC ISLAN LGT SNOW  33  33 100 E7        29.76S WCI  26
6HR MIN TEMP:  33; 6HR MAX TEMP:  33; 6HR PCP:  0.03;

NEWBERRY       FOG       32  31  97 N3        29.78R VSB 1/2
6HR MIN TEMP:  32; 6HR MAX TEMP:  32; 6HR PCP:  0.01;

S. S. MARIE    LGT SNOW  34  32  92 CALM      29.77S FOG
6HR MIN TEMP:  34; 6HR MAX TEMP:  35; 6HR PCP:  0.10;

MUNISING         N/A     34  34 100 NW7       29.79S WCI  28
6HR MIN TEMP:  34; 6HR MAX TEMP:  35; 6HR PCP:  0.03;

$$
MIZ004>006-011>014-085-241300-
CENTRAL UPPER MICHIGAN

CITY           SKY/WX    TMP DP  RH WIND       PRES   REMARKS
MANISTIQUE     FOG       32  32  99 CALM      29.78S VSB 3/4
6HR MIN TEMP:  32; 6HR MAX TEMP:  33;

ESCANABA       CLOUDY    34  34 100 NW3       29.80R
6HR MIN TEMP:  34; 6HR MAX TEMP:  35;

SAWYER-GWINN   CLOUDY    32  32 100 NW3       29.79S
$$
MIZ001>003-009>011-084-241300-
WESTERN UPPER MICHIGAN

CITY           SKY/WX    TMP DP  RH WIND       PRES   REMARKS
IRON MOUNTAIN  CLOUDY    34  32  92 NW5       29.79R FOG     WCI  30
6HR MIN TEMP:  33; 6HR MAX TEMP:  34;

HOUGHTON       CLOUDY    34  32  92 NW3       29.79S
6HR MIN TEMP:  33; 6HR MAX TEMP:  34;

COPPER HARBOR    N/A     34  34 100 CALM      29.81S
6HR MIN TEMP:  34; 6HR MAX TEMP:  35;

IRONWOOD       CLOUDY    33  32  96 W3        29.83S
6HR MIN TEMP:  33; 6HR MAX TEMP:  34;

$$

ABBREVIATIONS USED IN REMARKS
   TC - TEMPERATURE IN CELSIUS
  WCI - WIND CHILL INDEX
   HX - HEAT INDEX
  VSB - VISIBILITY





USA.gov is the U.S. government's official web portal to all federal, state and local government web resources and services.